Regional Weather Roundup
Issued by NWS

Home | Current Version | Previous Version | Text Only | Print | Product List | Glossary On
Versions: 1 2 3 4 5 6 7 8 9 10 11 12 13 14 15 16 17 18 19 20 21 22 23 24 25 26 27 28 29 30 31 32 33 34 35 36 37 38 39 40 41 42 43 44 45 46 47 48 49 50
000
ASUS43 KDTX 191110
RWRMI
MICHIGAN HOURLY REGIONAL WEATHER ROUNDUP
NATIONAL WEATHER SERVICE DETROIT/PONTIAC MI
700 AM EDT SUN APR 19 2015

NOTE: "FAIR" INDICATES FEW OR NO CLOUDS BELOW 12,000 FEET WITH NO
SIGNIFICANT WEATHER AND/OR OBSTRUCTION TO VISIBILITY.

MIZ047>049-052>055-059>063-066>070-074>076-081>083-191200-
SOUTHEAST LOWER MICHIGAN

CITY           SKY/WX    TMP DP  RH WIND       PRES   REMARKS
ADRIAN         PTCLDY    44  33  65 E13       30.03F
ALMA           MOCLDY    39  31  74 NE7       30.08S WCI  34
ANN ARBOR      CLEAR     46  29  51 E12       30.04F
BAD AXE        PTCLDY    37  27  67 E5        30.13S WCI  34
CARO           MOCLDY    40  28  63 E7        30.10S
DETROIT CITY   CLEAR     45  31  58 E10       30.09R
DETROIT        MOCLDY    47  28  47 NE12      30.06F
FLINT          PTCLDY    42  29  59 E9        30.09S
GROSSE ILE     CLEAR     45  30  57 NE10      30.04F
HILLSDALE      MOCLDY    47  30  52 E17       30.00S
HOWELL         CLEAR     46  26  45 E15       30.05S

CITY           SKY/WX    TMP DP  RH WIND       PRES   REMARKS
JACKSON        PTCLDY    47  28  47 E14       30.02F
LAMBERTVILLE   PTCLDY    46  34  61 E9G18     30.03S
LANSING        PTCLDY    39  30  70 E7        30.05S WCI  34
LAPEER         FAIR      37  29  72 CALM      30.09F
MASON          PTCLDY    46  28  49 E12       30.03F
MONROE         CLEAR     46  32  57 E9        30.03F
PONTIAC        PTCLDY    42  27  55 E6        30.08R
PORT HOPE        N/A     40  32  73 E13       30.13S WCI  32
PORT HURON     PTCLDY    43  30  61 E15G22    30.11S
TRI CITIES     MOCLDY    40  29  64 E7        30.10R
TROY           CLEAR     43  29  58 NE3       30.11R
SAGINAW HB     MOCLDY    37  30  75 E6        30.09S WCI  33
$$
MIZ043>046-050>051-056>058-064>065-071>073-077>080-191200-
SOUTHWEST LOWER MICHIGAN

CITY           SKY/WX    TMP DP  RH WIND       PRES   REMARKS
BATTLE CREEK   PTCLDY    49  28  44 E10       30.00S
BENTON HARBOR  MOCLDY    51  29  42 E15       29.93S
BIG RAPIDS     MOCLDY    42  31  64 E9        30.05S
COLDWATER      MOCLDY    48  28  46 E12       29.99S
FREMONT        PTSUNNY   45  26  47 E9G16     30.01S
HOLLAND        MOCLDY    47  31  53 E13       29.98F
GRAND RAPIDS   MOCLDY    43  30  60 E15       30.01F
IONIA          FAIR      41  31  69 E9G16     30.04S
KALAMAZOO      MOCLDY    50  29  44 E7        30.00R
LUDINGTON      MOCLDY    51  28  41 E15G25    29.99S
MARSHALL       MOCLDY    46  29  50 E6        30.00S
MOUNT PLEASANT MOCLDY    39  33  78 NE5       30.08S
MUSKEGON       MOCLDY    48  28  46 E15G23    29.98F
SOUTH HAVEN    CLOUDY    52  26  36 E13G20    29.94F
$$
MIZ016>042-191200-
NORTHERN LOWER MICHIGAN

CITY           SKY/WX    TMP DP  RH WIND       PRES   REMARKS
ALPENA         CLEAR     37  29  72 E14       30.18S WCI  28
BEAVER ISLAND  CLEAR     37  29  73 E10       30.09F WCI  30
BELLAIRE       CLEAR     44  23  44 E3        30.08F
CADILLAC       PTCLDY    41  25  53 E9        30.05S
CHARLEVOIX     CLEAR     44  24  46 SE14G22   30.10F
FRANKFORT      PTCLDY    49  18  28 E10G16    30.00F
GAYLORD        CLEAR     36  25  64 SE13      30.11S WCI  27
GRAYLING       PTCLDY    32  25  74 E8        30.12R WCI  25
HARBOR SPRINGS CLEAR     38  28  67 E15G21    30.12F WCI  29
HOUGHTON LAKE  PTCLDY    36  25  64 E10       30.09F WCI  28
MANISTEE       PTCLDY    46  23  39 E13       30.01F
OSCODA         CLEAR     38  32  77 E7        30.16S WCI  33
PELLSTON       CLEAR     37  27  67 E12       30.15S WCI  29
ROGERS CITY    CLEAR     36  31  82 SE10G17   30.19S WCI  28
TRAVERSE CITY  PTCLDY    44  24  45 VRB5      30.04F
$$
MIZ007>008-015-191200-
EASTERN UPPER MICHIGAN

CITY           SKY/WX    TMP DP  RH WIND       PRES   REMARKS
KINROSS        CLEAR     34  28  80 E16       30.18R WCI  23
MACKINAC ISLAN CLEAR     35  31  82 E15G26    30.14F WCI  26
NEWBERRY       PTCLDY    35  28  75 E20       30.12S WCI  24
S. S. MARIE    CLEAR     36  24  62 E10       30.18S WCI  28
MUNISING         N/A     40  27  59 SE9G23    30.04F WCI  34
$$
MIZ004>006-011>014-085-191200-
CENTRAL UPPER MICHIGAN

CITY           SKY/WX    TMP DP  RH WIND       PRES   REMARKS
MANISTIQUE     PTCLDY    40  28  61 E10G18    30.08F WCI  34
ESCANABA       PTCLDY    36  25  64 CALM      30.04S
MENOMINEE      PTCLDY    39  27  60 E10       29.99F WCI  32
SAWYER-GWINN   CLEAR     39  25  56 SE9       30.02F WCI  33
$$
MIZ001>003-009>011-084-191200-
WESTERN UPPER MICHIGAN

CITY           SKY/WX    TMP DP  RH WIND       PRES   REMARKS
IRON MOUNTAIN  MOCLDY    39  26  59 SE9       29.98F WCI  33
HOUGHTON       CLOUDY    36  28  73 E15       29.97S WCI  27
COPPER HARBOR    N/A     40  27  59 S13G22    30.00F WCI  32
IRONWOOD       CLOUDY    43  36  75 SE13G18   29.83F
$$

ABBREVIATIONS USED IN REMARKS
   TC - TEMPERATURE IN CELSIUS
  WCI - WIND CHILL INDEX
   HX - HEAT INDEX
  VSB - VISIBILITY



USA.gov is the U.S. government's official web portal to all federal, state and local government web resources and services.